STARLINK-33787, 63519

Orbit data source: Space-Track

STARLINK-33787, 63519 is a payload satellite owned by SpaceX/Seattle (US) in LEO that was launched on Mon, 07 Apr 2025 UTC via an FALCON 9 launch vehicle from the Air Force Western Test Range (AFWTR). Payload-class satellites include a variety of spacecraft equipped with specific instruments for various scientific and technological missions. These include communications satellites like Starlink; space stations such as the ISS; scientific satellites like the Hubble; Earth observation satellites from companies like Planet Labs, Umbra, and HawkEye 360; GPS; miniature CubeSats for education and research; and military/defense satellites.

Loading next visibility...
Identifier
63519, 2025-071AC
Orbit
LEO
Last TLE update
10 hours ago
Origin
Manufacturer
SpaceX/Seattle
Mission
Operational Commercial Communications
Bus & Motor
STARLINK V2MO, Unknown motor
Mass
575 kg wet, ~530 kg dry
Launch date (UTC)
2025-04-07 (3 months ago)
Launch vehicle
FALCON 9
Launch site
Air Force Western Test Range (AFWTR)
Object type
Payload
Rocket body
Debris
Shape & HBR
Box + 1 Pan, 29 m
Radar Cross Section
41.120 m², Large (>1 m²)

Expand to show TLE details & history

TLE from 10 hours ago
0 STARLINK-33787
1 63519U 25071AC  25182.52611486  .00017497  00000-0  60149-3 0  9991
2 63519  53.1589 228.7895 0001035  71.3396 288.7717 15.30200223 13918
Epoch: 2025-07-01T12:37Z
TLE epoch observation values (Epoch: 2025-07-01T12:37:36.323Z)
Latitude
-0.00005°
Longitude
119.56781°
Altitude
475.886 km
Speed
7.629 km/s
True Right ascension
15h 15m 09s
True Declination
0° 00' 00"
Sunlit
Object was in full shadow at epoch
Visualization orbit readout
Latitude
41.04075°
Longitude
158.13786°
Altitude
478.308 km
Speed
7.632 km/s
Apparent Right ascension
19h 49m 13s
Apparent Declination
2° 42' 29"
Sunlit
Object is in full shadow
Visualization observer readout
Local Sidereal Time
09:56:37
Azimuth
42.232° NE
Elevation
-38.349°
Doppler factor
1
Orbital elements
Apogee altitude
476.18 km
Perigee altitude
474.762 km
Semi-major axis
6,853.608 km
Eccentricity
0.0001
Inclination
53.1589°
RAAN
228.7895°
Arg. of periapsis
71.3396°
True anomaly
Unknown
Mean anomaly
288.7717°
Eccentric anomaly
Unknown
Mean motion
3.82529 °/min
Orbital period
94.11 mins
BSTAR
0.00060149
Loading maneuver chart data...
Loading SW <> Apogee altitude chart data...
Loading historical data...
Loading historical data...
Loading historical data...
Loading historical data...
Loading historical data...
Loading historical data...
Loading historical data...

STARLINK-33787 Visibility forecast

Observer location: undefined°, undefined°

Span
Click to sort rows by Start time (UTC) header in descending order
Start Az.
Max El. time (UTC)
Max El. Az.
Max El.
End time (UTC)
End Az.
5 mins2025-07-02 06:04:14.203Z240.389° WSW2025-07-02 06:06:14.203Z285.265° WNW42.53°2025-07-02 06:09:14.203Z44.166° NE
4 mins2025-07-02 11:01:14.203Z343.966° N2025-07-02 11:03:14.203Z22.304° NNE17.913°2025-07-02 11:05:14.203Z60.955° ENE
5 mins2025-07-02 12:39:14.203Z308.483° NW2025-07-02 12:41:14.203Z296.314° NW43.632°2025-07-02 12:44:14.203Z133.201° SE
|